Location: Newark
(43.0000°N, 1.6781°W)
Time: 23:21:26
(UTC+00:00)

Vanguard 1 - Pass Details

Date: 07 December 2021
Orbit: 652 x 3830 km, 34.2° (Epoch: 17 January)

Event Time Altitude Azimuth Distance (km) Brightness Sun altitude
Exits shadow 06:27:43 - 275° (W) 6,702 13.7 -10.1°
Reaches altitude 10° 06:29:10 10° 272° (W) 6,435 13.6 -9.9°
Maximum altitude 06:42:01 22° 231° (SW) 4,485 13.2 -7.7°
Drops below altitude 10° 06:51:16 10° 186° (S) 4,474 13.7 -6.2°
Sets 06:55:12 0° 171° (S) 4,999 14.2 -5.5°
